Location: Byszew
(52.1813°N, 19.2693°E)
Time: 17:45:21
(UTC+00:00)

Cosmos 2360 Rocket - Pass Details

Date: 03 March 2021
Orbit: 832 x 846 km, 71.0° (Epoch: 17 April)

Event Time Altitude Azimuth Distance (km) Brightness Sun altitude
Rises 18:39:13 0° 216° (SW) 3,381 5.6 -21.0°
Reaches altitude 10° 18:41:39 10° 218° (SW) 2,452 4.8 -21.3°
Maximum altitude 18:47:16 72° 303° (WNW) 886 2.4 -22.1°
Drops below altitude 10° 18:52:58 10° 28° (NNE) 2,476 4.5 -23.0°
Sets 18:55:26 0° 31° (NNE) 3,416 5.3 -23.3°
